K2AS-13 Weather Reports


Display with metric or nautical units.
time (UTC)temp
F
wind
direction
speed
MPH
gust
MPH
rain 1hr
in
rain 24hr
in
rain mn
in
humidity
%
barometer
mb
20260509101015 46 0.0 0.0 0.00 0.01 0.00 74 1006.5
20260509100016 45 0.0 0.0 0.00 0.01 0.00 74 1006.6
20260509095016 45 0.0 0.0 0.00 0.01 0.00 74 1006.6
20260509094016 45 0.0 0.0 0.00 0.01 0.00 74 1006.5
20260509093036 45 0.0 0.0 0.00 0.01 0.00 73 1006.6
20260509092016 45 0.0 0.0 0.00 0.01 0.00 73 1006.5
20260509091015 45 0.0 0.0 0.00 0.01 0.00 72 1006.6
20260509090016 45 0.0 0.0 0.00 0.01 0.00 72 1006.7
20260509085016 45 0.0 0.0 0.00 0.01 0.00 72 1006.8
20260509084036 45 0.0 0.0 0.00 0.01 0.00 71 1006.9
20260509083016 46 0.0 0.0 0.00 0.01 0.00 71 1007.0
20260509082036 46 0.0 0.0 0.00 0.01 0.00 71 1007.0
20260509081016 45 0.0 0.0 0.00 0.01 0.00 71 1007.1
20260509080036 46 0.0 0.0 0.00 0.01 0.00 70 1007.1
20260509075016 46 0.0 0.0 0.00 0.01 0.00 69 1007.2
20260509074016 46 0.0 0.0 0.00 0.01 0.00 69 1007.4
20260509073016 46 0.0 0.0 0.00 0.01 0.00 69 1007.5
20260509072015 46 0.0 0.0 0.00 0.01 0.00 68 1007.5
20260509071056 47 0.0 0.0 0.00 0.01 0.00 68 1007.6
20260509070016 47 0.0 0.0 0.00 0.02 0.00 66 1007.8
20260509065015 47 0.0 0.0 0.00 0.02 0.00 67 1007.7
20260509064016 47 0.0 0.0 0.00 0.02 0.00 67 1007.8
20260509063015 47 0.0 0.0 0.00 0.02 0.00 67 1008.0
20260509062016 46 0.0 0.0 0.00 0.02 0.00 69 1008.1
20260509061016 46 0.0 0.0 0.00 0.02 0.00 69 1008.2
20260509060016 46 0.0 0.0 0.00 0.02 0.00 71 1008.3
20260509055015 46 0.0 0.0 0.00 0.02 0.00 71 1008.4
20260509054016 46 0.0 0.0 0.00 0.02 0.00 71 1008.5
20260509053035 46 0.0 0.0 0.00 0.02 0.00 72 1008.6
20260509052036 46 0.0 0.0 0.00 0.02 0.00 70 1008.7
20260509051015 46 0.0 0.0 0.00 0.02 0.00 71 1008.7
20260509050016 46 0.0 0.0 0.00 0.02 0.00 72 1008.8
20260509045015 45 0.0 0.0 0.00 0.02 0.00 74 1008.8
20260509044015 45 0.0 0.0 0.00 0.02 0.00 73 1008.9
20260509043056 45 0.0 0.0 0.00 0.02 0.00 74 1008.9
20260509042015 45 0.0 0.0 0.00 0.03 0.00 74 1009.0
20260509041036 45 0.0 0.0 0.00 0.03 0.00 75 1009.2
20260509040015 45 0.0 0.0 0.00 0.03 0.00 74 1009.2
20260509035017 46 0.0 0.0 0.00 0.03 0.03 73 1009.1
20260509034017 45 0.0 0.0 0.00 0.04 0.03 74 1009.2
20260509033016 45 0.0 0.0 0.00 0.06 0.03 75 1009.1
20260509032037 45 0.0 0.0 0.00 0.06 0.03 75 1009.2
20260509031017 45 0.0 0.0 0.00 0.06 0.03 76 1009.3
20260509030016 45 0.0 0.0 0.00 0.06 0.03 77 1009.4
20260509025017 44 0.0 0.0 0.00 0.06 0.03 80 1009.2
20260509024017 44 0.0 0.0 0.00 0.07 0.03 81 1009.2
20260509023017 44 0.0 0.0 0.00 0.07 0.03 81 1009.2
20260509022016 44 0.0 0.0 0.00 0.07 0.03 82 1009.3
20260509021016 43 0.0 0.0 0.00 0.07 0.03 82 1009.3
20260509020017 43 0.0 0.0 0.00 0.07 0.03 83 1009.4
20260509015017 43 0.0 0.0 0.00 0.07 0.03 82 1009.3
20260509014037 44 0.0 0.0 0.00 0.07 0.03 85 1009.4
20260509013016 45 0.0 0.0 0.00 0.07 0.03 82 1009.4
20260509012037 45 0.0 0.0 0.00 0.07 0.03 81 1009.3
20260509011016 45 0.0 0.0 0.00 0.07 0.03 81 1009.1
20260509010017 45 0.0 0.0 0.00 0.07 0.03 80 1008.9
20260509005017 46 0.0 0.0 0.00 0.07 0.03 76 1008.8
20260509004016 47 0.0 0.0 0.00 0.07 0.03 75 1008.7
20260509003016 48 0.0 0.0 0.00 0.07 0.03 73 1008.7
20260509002017 49 0.0 0.0 0.00 0.07 0.03 66 1008.7
20260509001016 50 0.0 0.0 0.00 0.07 0.03 68 1008.7
20260509000016 50 0.0 0.0 0.00 0.07 0.03 67 1008.7
20260508235016 50 0.0 0.0 0.00 0.07 0.03 66 1008.6
20260508234016 50 0.0 0.0 0.00 0.07 0.03 62 1008.5
20260508233037 51 0.0 0.0 0.00 0.07 0.03 61 1008.5
20260508232016 52 0.0 0.0 0.00 0.07 0.03 62 1008.5
20260508231016 52 0.0 0.0 0.00 0.07 0.03 61 1008.5
20260508230017 53 0.0 0.0 0.00 0.07 0.03 56 1008.6
20260508225016 53 0.0 0.0 0.00 0.07 0.03 56 1008.6
20260508224017 53 0.0 0.0 0.00 0.07 0.03 60 1008.6
20260508223016 53 0.0 0.0 0.00 0.07 0.03 61 1008.6
20260508222037 53 0.0 0.0 0.00 0.07 0.03 61 1008.6
20260508221017 52 0.0 0.0 0.00 0.07 0.03 60 1008.8
20260508220036 52 0.0 0.0 0.00 0.07 0.03 63 1008.9
20260508215016 53 0.0 0.0 0.00 0.07 0.03 66 1008.9
20260508214016 54 0.0 0.0 0.00 0.07 0.03 61 1008.9
20260508213016 55 0.0 0.0 0.00 0.07 0.03 61 1008.9
20260508212036 54 0.0 0.0 0.00 0.07 0.03 62 1008.9
20260508211036 54 0.0 0.0 0.00 0.07 0.03 65 1008.9
20260508210016 53 0.0 0.0 0.00 0.07 0.03 65 1008.9
20260508205016 52 0.0 0.0 0.00 0.07 0.03 69 1009.1
20260508204016 52 0.0 0.0 0.00 0.07 0.03 70 1009.3
20260508203016 52 0.0 0.0 0.00 0.07 0.03 70 1009.4
20260508202016 51 0.0 0.0 0.00 0.07 0.03 74 1009.6
20260508201016 51 0.0 3.0 0.00 0.07 0.03 71 1009.6
20260508200017 50 23 1.0 4.0 0.00 0.07 0.03 72 1009.7
20260508195016 49 23 2.0 5.0 0.00 0.07 0.03 70 1009.8
20260508194016 49 0 3.0 7.0 0.00 0.07 0.03 71 1009.8
20260508193016 49 23 3.0 9.0 0.00 0.07 0.03 72 1010.0
20260508192017 49 23 2.0 6.0 0.00 0.07 0.03 72 1010.0
20260508191016 49 23 3.0 6.0 0.00 0.07 0.03 70 1010.1
20260508190016 49 90 1.0 6.0 0.00 0.07 0.03 76 1010.1
20260508185037 49 0 1.0 5.0 0.00 0.07 0.03 77 1010.0
20260508184016 49 0 2.0 7.0 0.00 0.07 0.03 74 1010.1
20260508183016 49 45 2.0 5.0 0.00 0.07 0.03 74 1010.1
20260508182016 49 23 1.0 7.0 0.00 0.07 0.03 76 1010.2
20260508181036 50 0.0 1.0 0.00 0.07 0.03 80 1010.2
20260508180016 50 315 2.0 8.0 0.00 0.07 0.03 78 1010.3
20260508175016 50 315 4.0 8.0 0.00 0.07 0.03 75 1010.3
20260508174016 50 338 4.0 8.0 0.00 0.07 0.03 72 1010.3
20260508173016 51 293 2.0 6.0 0.00 0.07 0.03 75 1010.4
20260508172016 50 338 5.0 10.0 0.00 0.07 0.03 70 1010.4
20260508171036 50 315 3.0 9.0 0.00 0.07 0.03 71 1010.5
20260508170016 48 293 1.0 7.0 0.00 0.07 0.03 77 1010.6
20260508165016 50 338 2.0 9.0 0.00 0.07 0.03 75 1010.8
20260508164016 50 315 2.0 10.0 0.00 0.07 0.03 73 1010.9
20260508163017 49 315 3.0 9.0 0.00 0.07 0.03 77 1011.0
20260508162016 49 293 3.0 9.0 0.00 0.07 0.03 76 1011.1
20260508161016 49 0.0 0.0 0.00 0.07 0.03 82 1011.2
20260508160016 48 0.0 0.0 0.00 0.07 0.03 81 1011.3
20260508155036 48 270 3.0 9.0 0.00 0.07 0.03 78 1011.2
20260508154036 49 293 1.0 7.0 0.00 0.07 0.03 75 1011.1
20260508153016 49 0.0 9.0 0.00 0.07 0.03 73 1011.1
20260508152056 49 248 2.0 8.0 0.00 0.07 0.03 76 1011.1
20260508151036 48 248 1.0 7.0 0.00 0.07 0.03 75 1011.1
20260508150016 48 0.0 1.0 0.00 0.07 0.03 76 1011.1
20260508145016 48 0.0 0.0 0.00 0.07 0.03 78 1011.0
20260508144036 47 0.0 1.0 0.00 0.07 0.03 80 1011.0
20260508143016 46 248 2.0 7.0 0.00 0.07 0.03 81 1010.9
20260508142016 45 203 2.0 7.0 0.00 0.07 0.03 83 1010.8
20260508141016 45 225 2.0 7.0 0.00 0.07 0.03 85 1010.8
20260508140016 45 225 3.0 7.0 0.00 0.07 0.03 86 1010.8
20260508135016 44 225 1.0 6.0 0.00 0.07 0.03 88 1010.8
20260508134016 44 203 2.0 8.0 0.01 0.07 0.03 89 1010.8
20260508133016 44 248 1.0 4.0 0.01 0.07 0.03 90 1010.9
20260508132016 44 225 3.0 8.0 0.01 0.07 0.03 89 1010.9
20260508131016 44 248 3.0 10.0 0.01 0.07 0.03 91 1010.8
20260508130016 44 0.0 0.0 0.01 0.07 0.03 94 1010.8
20260508125016 43 0.0 0.0 0.01 0.07 0.03 93 1010.8
20260508124016 44 0.0 0.0 0.00 0.06 0.02 95 1010.7
20260508123036 43 0.0 0.0 0.00 0.06 0.02 96 1010.6
20260508122016 43 0.0 0.0 0.00 0.06 0.02 96 1010.6
20260508121016 43 0.0 0.0 0.00 0.06 0.02 96 1010.6
20260508120016 43 0.0 0.0 0.00 0.06 0.02 96 1010.5
20260508115016 43 0.0 0.0 0.00 0.06 0.02 96 1010.3
20260508114016 42 0.0 0.0 0.00 0.06 0.02 96 1010.1
20260508113016 42 0.0 0.0 0.00 0.06 0.02 96 1010.0
20260508112016 42 0.0 0.0 0.00 0.06 0.02 96 1009.7
20260508111016 41 0.0 0.0 0.00 0.06 0.02 96 1009.7
20260508110016 41 0.0 0.0 0.00 0.06 0.02 96 1009.8
20260508105016 41 0.0 0.0 0.00 0.06 0.02 96 1009.6
20260508104016 41 0.0 0.0 0.00 0.06 0.02 96 1009.7
20260508103016 40 0.0 0.0 0.00 0.06 0.02 96 1009.7
20260508102016 40 0.0 0.0 0.00 0.06 0.02 96 1009.7